Latest Weather Observations for Wyndham Airport

IDW60801

Issued at 8:32 am WST Sunday 1 March 2015 (issued every 30 minutes, with the page automatically refreshed every 10 minutes)

About weather observations | Map of weather stations | Latest weather observations for WA | Other Formats
Station Details ID: 001006 Name: WYNDHAM AERO Lat: -15.51 Lon: 128.15 Height: 3.8 m
Data from the previous 72 hours. | See also: Recent months for locations in Western Australia
Date/Time
WST
Temp
°C
App
Temp
°C
Dew
Point
Rel
Hum
%
Delta-T
°C
Wind Press
QNH
hPa
Press
MSL
hPa
Rain
since 9 am
mm
Dir
 
Spd
km/h
Gust
km/h
Spd
kts
Gust
kts
01/08:30am 31.7 36.6 24.3 65 5.2 SW 6 11 3 6 1007.7 1007.7 0.4
01/08:00am 30.8 35.6 24.4 68 4.5 SSW 7 13 4 7 1007.9 1007.9 0.4
01/07:30am 30.2 35.1 24.4 71 4.0 S 6 11 3 6 1007.5 1007.5 0.4
01/07:00am 29.5 34.6 24.1 72 3.8 SE 4 9 2 5 1007.2 1007.2 0.4
01/06:30am 28.1 35.1 25.9 88 1.6 CALM 0 0 0 0 1006.7 1006.7 0.4
01/06:00am 26.8 33.5 25.4 92 1.0 CALM 0 4 0 2 1006.3 1006.3 0.4
01/05:30am 26.4 32.0 24.8 91 1.1 NNW 4 7 2 4 1005.7 1005.7 0.4
01/05:00am 25.9 30.8 24.3 91 1.1 NE 6 6 3 3 1005.2 1005.2 0.4
01/04:30am 26.1 30.2 24.5 91 1.1 ESE 11 13 6 7 1005.2 1005.2 0.4
01/04:00am 26.1 31.0 24.7 92 1.0 ESE 7 9 4 5 1005.1 1005.1 0.4
01/03:30am 26.2 31.4 24.8 92 1.0 ENE 6 9 3 5 1004.9 1004.9 0.4
01/03:00am 26.2 29.9 24.6 91 1.1 ESE 13 15 7 8 1004.6 1004.6 0.4
01/02:30am 26.4 31.1 25.0 92 1.0 E 9 11 5 6 1004.4 1004.4 0.4
01/02:00am 26.1 30.9 24.5 91 1.1 E 7 11 4 6 1004.9 1004.9 0.4
01/01:30am 26.7 31.0 24.9 90 1.3 E 11 13 6 7 1005.2 1005.2 0.4
01/01:00am 26.6 31.0 25.0 91 1.1 SE 11 13 6 7 1005.6 1005.6 0.4
01/12:30am 26.9 31.2 24.9 89 1.4 ENE 11 13 6 7 1005.8 1005.8 0.4
01/12:00am 27.4 32.1 25.0 87 1.7 SE 9 13 5 7 1005.8 1005.8 0.4
 
Date/Time
WST
Temp
°C
App
Temp
°C
Dew
Point
Rel
Hum
%
Delta-T
°C
Wind Press
QNH
hPa
Press
MSL
hPa
Rain
since 9 am
mm
Dir
 
Spd
km/h
Gust
km/h
Spd
kts
Gust
kts
28/11:30pm 28.2 33.1 24.6 81 2.5 SSE 7 9 4 5 1006.5 1006.5 0.4
28/11:00pm 28.8 32.8 24.4 77 3.1 SW 11 13 6 7 1006.5 1006.5 0.4
28/10:30pm 29.6 31.6 24.0 72 3.9 NW 20 28 11 15 1006.5 1006.5 0.4
28/10:00pm 29.0 32.4 24.6 77 3.1 NNW 15 20 8 11 1006.9 1006.9 0.4
28/09:30pm 29.1 33.9 25.1 79 2.8 NNW 9 11 5 6 1007.0 1007.0 0.4
28/09:00pm 29.3 33.0 25.1 78 3.0 N 15 22 8 12 1007.3 1007.3 0.4
28/08:30pm 29.5 36.3 25.5 79 2.8 CALM 0 0 0 0 1007.0 1007.0 0.4
28/08:00pm 29.4 34.5 24.9 77 3.2 E 7 9 4 5 1006.7 1006.7 0.4
28/07:30pm 29.8 34.6 24.4 73 3.8 NNW 7 13 4 7 1006.1 1006.1 0.4
28/07:00pm 29.0 33.6 24.8 78 2.9 N 9 13 5 7 1006.2 1006.2 0.4
28/06:30pm 29.4 33.8 23.8 72 3.9 N 7 9 4 5 1005.6 1005.6 0.2
28/06:00pm 29.2 33.9 23.9 73 3.7 N 6 9 3 5 1004.7 1004.7 0.2
28/05:30pm 29.3 33.6 23.3 70 4.1 SE 6 11 3 6 1004.4 1004.4 0.2
28/05:00pm 29.2 30.4 23.2 70 4.1 SSW 22 32 12 17 1003.7 1003.7 0.2
28/04:30pm 28.7 28.6 23.6 74 3.5 SW 30 39 16 21 1004.2 1004.2 0.2
28/04:25pm 29.0 30.1 24.3 76 3.3 SW 26 39 14 21 1004.2 1004.2 0.2
28/04:00pm 31.3 32.9 21.5 56 6.6 ESE 15 26 8 14 1003.9 1003.9 0.0
28/03:30pm 31.7 29.4 21.2 53 7.1 SE 35 48 19 26 1002.7 1002.7 0.0
28/03:23pm 33.2 32.3 21.4 50 8.0 SE 28 41 15 22 1002.8 1002.8 0.0
28/03:00pm 36.6 41.2 23.8 47 9.0 NE 6 13 3 7 1002.2 1002.2 0.0
28/02:30pm 37.9 43.2 23.1 42 10.3 CALM 0 13 0 7 1002.4 1002.4 0.0
28/02:00pm 37.2 40.9 22.5 42 10.2 NW 7 15 4 8 1003.0 1003.0 0.0
28/01:30pm 37.2 41.9 25.0 49 8.7 N 9 15 5 8 1003.4 1003.4 0.0
28/01:00pm 37.1 41.2 23.9 46 9.3 NNE 9 17 5 9 1004.1 1004.1 0.0
28/12:30pm 37.6 42.5 23.6 44 9.8 W 4 13 2 7 1004.7 1004.7 0.0
28/12:00pm 36.5 40.7 23.4 47 9.2 N 7 11 4 6 1005.3 1005.3 0.0
28/11:30am 35.4 39.2 22.7 47 8.8 NW 7 15 4 8 1005.5 1005.5 0.0
28/11:00am 34.9 38.8 24.2 53 7.5 SW 11 19 6 10 1006.1 1006.1 0.0
28/10:30am 34.4 38.7 23.7 53 7.5 S 7 13 4 7 1006.6 1006.6 0.0
28/10:00am 33.5 38.4 24.4 59 6.4 SSW 6 9 3 5 1007.0 1007.0 0.0
28/09:30am 32.6 37.5 24.4 62 5.7 SSW 6 11 3 6 1007.6 1007.6 0.0
28/09:00am 31.8 35.8 24.4 65 5.2 SW 11 17 6 9 1008.0 1008.0 0.0
28/08:30am 31.8 36.1 24.9 67 4.9 SSW 11 15 6 8 1008.0 1008.0 0.0
28/08:00am 31.1 35.2 24.0 66 4.9 SW 9 15 5 8 1007.9 1007.9 0.0
28/07:30am 30.4 34.8 24.5 70 4.1 WNW 9 13 5 7 1007.8 1007.8 0.0
28/07:00am 29.5 34.2 25.0 77 3.2 NW 9 13 5 7 1007.7 1007.7 0.0
28/06:30am 28.8 35.3 25.0 80 2.7 CALM 0 0 0 0 1007.2 1007.2 0.0
28/06:00am 27.8 34.3 25.0 85 2.0 CALM 0 4 0 2 1006.8 1006.8 0.0
28/05:30am 27.8 32.7 24.6 83 2.2 NW 7 9 4 5 1006.3 1006.3 0.0
28/05:00am 28.4 32.9 24.0 77 3.0 WNW 7 7 4 4 1006.1 1006.1 0.0
28/04:30am 28.6 32.7 23.9 75 3.2 W 9 11 5 6 1005.6 1005.6 0.0
28/04:00am 28.8 33.0 24.1 76 3.3 WNW 9 11 5 6 1005.4 1005.4 0.0
28/03:30am 28.3 32.5 24.1 78 2.9 WNW 9 9 5 5 1005.1 1005.1 0.0
28/03:00am 29.4 33.0 23.8 72 3.9 WNW 11 13 6 7 1005.0 1005.0 0.0
28/02:30am 29.3 32.3 24.0 73 3.7 WNW 15 17 8 9 1005.2 1005.2 0.0
28/02:00am 29.1 32.4 23.8 73 3.7 NW 13 15 7 8 1005.7 1005.7 0.0
28/01:30am 29.8 32.8 24.0 71 4.0 WNW 15 17 8 9 1006.0 1006.0 0.0
28/01:00am 29.9 33.2 23.8 70 4.2 WNW 13 20 7 11 1005.7 1005.7 0.0
28/12:30am 30.0 33.5 24.2 71 4.0 W 13 19 7 10 1006.0 1006.0 0.0
28/12:00am 30.2 33.8 24.4 71 4.1 WNW 13 15 7 8 1006.3 1006.3 0.0
 
Date/Time
WST
Temp
°C
App
Temp
°C
Dew
Point
Rel
Hum
%
Delta-T
°C
Wind Press
QNH
hPa
Press
MSL
hPa
Rain
since 9 am
mm
Dir
 
Spd
km/h
Gust
km/h
Spd
kts
Gust
kts
27/11:30pm 30.0 34.0 24.4 72 3.9 NW 11 15 6 8 1006.6 1006.6 0.0
27/11:00pm 30.2 33.9 24.6 72 3.9 NNW 13 15 7 8 1006.8 1006.8 0.0
27/10:30pm 30.7 34.9 24.8 71 4.1 NNW 11 15 6 8 1007.2 1007.2 0.0
27/10:00pm 31.1 35.3 24.7 68 4.5 NW 11 15 6 8 1007.4 1007.4 0.0
27/09:30pm 30.9 36.6 26.4 77 3.2 NNW 9 11 5 6 1007.3 1007.3 0.0
27/09:00pm 30.8 36.5 26.5 78 3.1 NE 9 13 5 7 1006.9 1006.9 0.0
27/08:30pm 31.3 37.2 26.8 77 3.2 NE 9 17 5 9 1006.6 1006.6 0.0
27/08:00pm 31.3 35.6 27.2 79 3.0 N 19 26 10 14 1006.0 1006.0 0.0
27/07:30pm 31.5 35.5 27.0 77 3.2 N 20 30 11 16 1005.4 1005.4 0.0
27/07:00pm 31.9 34.9 26.7 74 3.8 N 24 32 13 17 1004.8 1004.8 0.0
27/06:30pm 32.8 36.6 25.3 64 5.3 N 15 22 8 12 1004.2 1004.2 0.0
27/06:00pm 33.5 38.6 24.9 60 6.1 N 7 9 4 5 1003.6 1003.6 0.0
27/05:30pm 34.7 38.7 23.7 52 7.7 N 9 11 5 6 1003.1 1003.1 0.0
27/05:00pm 35.7 38.7 23.3 48 8.7 N 13 15 7 8 1002.8 1002.8 0.0
27/04:30pm 36.0 38.9 23.2 47 8.9 NNW 13 17 7 9 1002.4 1002.4 0.0
27/04:00pm 36.3 39.0 22.8 45 9.4 NNW 13 19 7 10 1002.5 1002.5 0.0
27/03:30pm 36.6 40.6 23.1 45 9.4 WNW 7 13 4 7 1002.4 1002.4 0.0
27/03:00pm 36.9 41.8 23.0 44 9.7 E 2 9 1 5 1002.3 1002.3 0.0
27/02:30pm 36.6 40.4 22.4 44 9.8 NW 6 11 3 6 1002.6 1002.6 0.0
27/02:00pm 36.1 39.4 22.6 45 9.4 N 9 13 5 7 1002.9 1002.9 0.0
27/01:30pm 36.0 39.1 22.9 46 9.1 N 11 17 6 9 1003.3 1003.3 0.0
27/01:00pm 35.7 39.7 23.7 50 8.4 NNW 9 15 5 8 1004.0 1004.0 0.0
27/12:30pm 35.5 39.0 22.8 47 8.8 NNW 9 17 5 9 1004.8 1004.8 0.0
27/12:00pm 35.4 39.0 23.7 50 8.2 W 11 17 6 9 1005.5 1005.5 0.0
27/11:30am 35.4 39.0 23.0 48 8.6 WSW 9 17 5 9 1006.0 1006.0 0.0
27/11:00am 34.8 39.0 23.5 52 7.9 W 7 13 4 7 1006.7 1006.7 0.0
27/10:30am 34.2 37.3 23.6 54 7.4 SSW 13 26 7 14 1007.4 1007.4 0.0
27/10:00am 33.7 37.9 24.8 59 6.3 SSW 11 17 6 9 1007.9 1007.9 0.0
27/09:30am 32.5 38.6 24.5 62 5.6 CALM 0 0 0 0 1008.1 1008.1 0.0
27/09:00am 32.6 37.9 25.2 65 5.2 WSW 7 9 4 5 1008.2 1008.2 0.0
27/08:30am 31.5 37.1 24.9 68 4.6 SE 4 7 2 4 1008.0 1008.0 0.0
27/08:00am 30.8 35.5 24.9 71 4.2 ESE 9 13 5 7 1008.1 1008.1 0.0
27/07:30am 30.1 34.6 25.2 75 3.5 E 11 15 6 8 1008.1 1008.1 0.0
27/07:00am 29.2 34.2 25.4 80 2.7 SE 9 13 5 7 1008.0 1008.0 0.0
27/06:30am 28.9 35.8 25.7 83 2.3 CALM 0 0 0 0 1007.1 1007.1 0.0
27/06:00am 27.7 33.7 26.1 91 1.1 NW 6 7 3 4 1006.4 1006.4 0.0
27/05:30am 27.4 32.9 25.6 90 1.3 NW 7 9 4 5 1005.9 1005.9 0.0
27/05:00am 27.5 32.8 25.3 88 1.5 WNW 7 9 4 5 1005.7 1005.7 0.0
27/04:30am 27.6 32.9 25.0 86 1.8 W 6 7 3 4 1005.2 1005.2 0.0
27/04:00am 27.6 32.5 25.2 87 1.7 NNW 9 9 5 5 1005.0 1005.0 0.0
27/03:30am 27.8 32.4 24.8 84 2.1 NW 9 11 5 6 1004.9 1004.9 0.0
27/03:00am 27.9 33.0 24.9 84 2.1 WNW 7 9 4 5 1005.2 1005.2 0.0
27/02:30am 28.5 33.1 24.7 80 2.7 W 9 13 5 7 1005.0 1005.0 0.0
27/02:00am 28.8 32.5 24.6 78 2.9 WNW 13 17 7 9 1005.1 1005.1 0.0
27/01:30am 28.7 33.0 24.9 80 2.7 WNW 11 13 6 7 1005.2 1005.2 0.0
27/01:00am 29.0 33.7 25.0 79 2.8 WNW 9 11 5 6 1005.6 1005.6 0.0
27/12:30am 28.9 33.5 25.3 81 2.5 WSW 11 13 6 7 1006.1 1006.1 0.0
27/12:00am 29.0 35.1 25.6 82 2.4 NW 4 9 2 5 1006.1 1006.1 0.0
 
Date/Time
WST
Temp
°C
App
Temp
°C
Dew
Point
Rel
Hum
%
Delta-T
°C
Wind Press
QNH
hPa
Press
MSL
hPa
Rain
since 9 am
mm
Dir
 
Spd
km/h
Gust
km/h
Spd
kts
Gust
kts
26/11:30pm 29.0 34.5 25.6 82 2.4 NNW 7 9 4 5 1006.2 1006.2 0.0
26/11:00pm 29.3 34.4 25.5 80 2.7 NNW 9 11 5 6 1006.4 1006.4 0.0
26/10:30pm 29.8 34.7 25.3 77 3.2 NW 9 11 5 6 1007.4 1007.4 0.0
26/10:00pm 29.9 34.8 25.2 76 3.3 W 9 13 5 7 1007.4 1007.4 0.0
26/09:30pm 30.2 34.8 24.8 73 3.8 NW 9 11 5 6 1007.0 1007.0 0.0
26/09:00pm 30.3 35.1 25.1 73 3.7 NNW 9 11 5 6 1007.2 1007.2 0.0
26/08:30pm 30.6 34.7 25.2 73 3.8 NNW 13 17 7 9 1007.0 1007.0 0.0
26/08:00pm 30.9 33.6 24.8 70 4.3 NNW 19 24 10 13 1006.5 1006.5 0.0
26/07:30pm 30.9 34.4 24.8 70 4.3 NW 15 20 8 11 1006.1 1006.1 0.0
26/07:00pm 30.9 33.6 25.0 71 4.2 N 20 30 11 16 1005.4 1005.4 0.0
26/06:30pm 31.2 34.0 25.3 71 4.2 N 20 30 11 16 1004.7 1004.7 0.0
26/06:00pm 32.0 34.0 25.1 67 4.9 N 24 30 13 16 1004.5 1004.5 0.0
26/05:30pm 33.3 36.2 24.5 60 6.2 N 17 30 9 16 1004.1 1004.1 0.0
26/05:00pm 34.5 37.4 23.8 53 7.5 NNE 15 20 8 11 1003.1 1003.1 0.0
26/04:30pm 35.0 38.4 23.3 50 8.1 NE 11 17 6 9 1003.0 1003.0 0.0
26/04:00pm 35.4 38.6 23.7 50 8.2 NE 13 19 7 10 1002.9 1002.9 0.0
26/03:30pm 35.3 39.4 23.9 51 8.0 NNE 9 17 5 9 1003.0 1003.0 0.0
26/03:00pm 35.3 38.5 24.3 53 7.8 N 15 20 8 11 1003.0 1003.0 0.0
26/02:30pm 35.5 38.4 22.4 46 9.0 N 11 20 6 11 1003.1 1003.1 0.0
26/02:00pm 35.3 39.2 22.6 47 8.8 ENE 6 11 3 6 1003.3 1003.3 0.0
26/01:30pm 35.2 39.4 23.2 49 8.3 NNW 6 13 3 7 1004.0 1004.0 0.0
26/01:00pm 35.4 40.3 23.0 48 8.6 NW 2 7 1 4 1005.0 1005.0 0.0
26/12:30pm 35.2 39.4 22.5 47 8.7 WNW 4 11 2 6 1005.6 1005.6 0.0
26/12:00pm 33.9 38.0 23.0 53 7.5 NNW 6 11 3 6 1006.0 1006.0 0.0
26/11:30am 33.8 38.4 23.8 56 7.0 NNW 6 9 3 5 1006.5 1006.5 0.0
26/11:00am 33.4 37.5 24.0 58 6.6 W 9 15 5 8 1007.1 1007.1 0.0
26/10:30am 33.0 36.7 24.5 61 6.0 SW 13 19 7 10 1007.6 1007.6 0.0
26/10:00am 32.5 36.5 25.1 65 5.2 WSW 13 17 7 9 1007.6 1007.6 0.0
26/09:30am 32.0 37.5 26.1 71 4.2 WSW 9 15 5 8 1007.8 1007.8 0.0
26/09:00am 31.1 36.3 25.7 73 3.8 W 9 15 5 8 1008.0 1008.0 1.8

Other Formats:

Comma delimited format used in spreadsheet applications
http://www.bom.gov.au/fwo/IDW60801/IDW60801.95214.axf

JavaScript Object Notation format (JSON) in row-major order
http://www.bom.gov.au/fwo/IDW60801/IDW60801.95214.json